^^
Station Historical Data
Daily Summary for August 15, 2017 Units:  Metric    English   Both
« Previous Day
Next Day »
Daily Weekly Monthly Yearly Custom
  High: Low: Average:
Temperature: 22.8 °C 8.2 °C 11.8 °C
Dew Point: -0.4 °C -7.8 °C -5.3 °C
Humidity: 46% 14% 31%
Wind Speed: 22.7km/h 0km/h 3.9km/h
Wind Gust: 24.1km/h - -
Wind- - WNW
Pressure: 1018.2 hPa 1015.8 hPa -
Precipitation: 0 mm    
Historical Graphs
 
 
Tabular Data for August 15, 2017
Time Temperature Dew Point Pressure Wind Wind Speed Wind Gust Humidity Rainfall Rate (Hourly) solar Conditions
01:00 11 °C -7.3 °C 1016.8 hPa Calm     27% 0 mm 0.0 W/m2
01:05 10.9 °C -7.4 °C 1017.2 hPa Calm     27% 0 mm 0.0 W/m2
01:10 10.8 °C -7.5 °C 1016.8 hPa Calm     27% 0 mm 0.0 W/m2
01:15 10.7 °C -7.1 °C 1016.8 hPa Calm     28% 0 mm 0.0 W/m2
01:20 10.6 °C -7.2 °C 1016.8 hPa Calm     28% 0 mm 0.0 W/m2
01:25 10.6 °C -7.2 °C 1016.5 hPa Calm     28% 0 mm 0.0 W/m2
01:35 10.9 °C -7.4 °C 1016.5 hPa Calm     27% 0 mm 0.0 W/m2
01:41 10.8 °C -7.5 °C 1016.5 hPa Calm     27% 0 mm 0.0 W/m2
01:46 10.7 °C -7.6 °C 1016.5 hPa Calm     27% 0 mm 0.0 W/m2
01:51 10.7 °C -7.6 °C 1016.1 hPa Calm     27% 0 mm 0.0 W/m2
01:56 10.6 °C -7.2 °C 1016.1 hPa Calm     28% 0 mm 0.0 W/m2
02:02 10.5 °C -7.3 °C 1016.1 hPa Calm     28% 0 mm 0.0 W/m2
02:07 10.4 °C -7.3 °C 1016.1 hPa Calm     28% 0 mm 0.0 W/m2
02:12 10.3 °C -7.4 °C 1016.1 hPa Calm     28% 0 mm 0.0 W/m2
02:18 10.3 °C -7.4 °C 1016.1 hPa Calm     28% 0 mm 0.0 W/m2
02:23 10.2 °C -7.5 °C 1015.8 hPa Calm     28% 0 mm 0.0 W/m2
02:28 10.2 °C -7.1 °C 1015.8 hPa Calm     29% 0 mm 0.0 W/m2
02:34 10.1 °C -7.6 °C 1015.8 hPa Calm     28% 0 mm 0.0 W/m2
02:39 10 °C -7.2 °C 1015.8 hPa Calm     29% 0 mm 0.0 W/m2
02:44 9.9 °C -7.8 °C 1015.8 hPa Calm     28% 0 mm 0.0 W/m2
02:49 9.8 °C -7.4 °C 1015.8 hPa Calm     29% 0 mm 0.0 W/m2
02:54 9.8 °C -7.4 °C 1015.8 hPa Calm     29% 0 mm 0.0 W/m2
03:00 9.9 °C -6.9 °C 1015.8 hPa Calm     30% 0 mm 0.0 W/m2
03:05 9.9 °C -6.9 °C 1015.8 hPa Calm     30% 0 mm 0.0 W/m2
03:15 9.8 °C -7 °C 1015.8 hPa Calm     30% 0 mm 0.0 W/m2
03:20 9.9 °C -6.9 °C 1015.8 hPa Calm     30% 0 mm 0.0 W/m2
03:26 9.9 °C -6.9 °C 1015.8 hPa Calm     30% 0 mm 0.0 W/m2
03:31 9.9 °C -6.9 °C 1016.1 hPa Calm     30% 0 mm 0.0 W/m2
03:36 9.6 °C -7.1 °C 1016.1 hPa Calm     30% 0 mm 0.0 W/m2
03:41 9.3 °C -6.6 °C 1015.8 hPa Calm     32% 0 mm 0.0 W/m2
03:46 9 °C -6.8 °C 1016.1 hPa Calm     32% 0 mm 0.0 W/m2
03:51 8.7 °C -7.5 °C 1016.1 hPa Calm     31% 0 mm 0.0 W/m2
03:57 8.5 °C -6.9 °C 1015.8 hPa Calm     33% 0 mm 0.0 W/m2
04:02 8.3 °C -6.3 °C 1015.8 hPa Calm     35% 0 mm 0.0 W/m2
04:07 8.3 °C -6.7 °C 1015.8 hPa Calm     34% 0 mm 0.0 W/m2
04:17 8.2 °C -7.1 °C 1016.1 hPa Calm     33% 0 mm 0.0 W/m2
04:22 8.4 °C -7 °C 1016.1 hPa Calm     33% 0 mm 0.0 W/m2
04:28 8.4 °C -7.4 °C 1016.1 hPa Calm     32% 0 mm 0.0 W/m2
04:33 8.4 °C -7 °C 1016.1 hPa Calm     33% 0 mm 0.0 W/m2
04:43 8.2 °C -6.4 °C 1016.5 hPa Calm     35% 0 mm 0.0 W/m2
04:48 8.5 °C -6.1 °C 1016.5 hPa Calm     35% 0 mm 0.0 W/m2
04:53 8.8 °C -5.8 °C 1016.5 hPa Calm     35% 0 mm 0.0 W/m2
04:58 9.2 °C -5.9 °C 1016.1 hPa Calm     34% 0 mm 0.0 W/m2
05:03 9.3 °C -5.4 °C 1016.5 hPa Calm     35% 0 mm 0.0 W/m2
05:08 9.1 °C -5.6 °C 1016.5 hPa Calm     35% 0 mm 0.0 W/m2
05:13 9.1 °C -5.6 °C 1016.5 hPa Calm     35% 0 mm 0.0 W/m2
05:19 9.1 °C -5.6 °C 1016.5 hPa Calm     35% 0 mm 0.0 W/m2
05:24 9.2 °C -5.5 °C 1016.8 hPa Calm     35% 0 mm 0.0 W/m2
05:29 9.4 °C -5.3 °C 1016.8 hPa Calm     35% 0 mm 0.0 W/m2
05:34 9.5 °C -5.2 °C 1016.8 hPa Calm     35% 0 mm 0.0 W/m2
05:39 9.6 °C -4.7 °C 1016.8 hPa Calm     36% 0 mm 0.0 W/m2
05:45 9.8 °C -4.6 °C 1017.2 hPa Calm     36% 0 mm 0.0 W/m2
05:50 10 °C -4.4 °C 1017.2 hPa Calm     36% 0 mm 0.0 W/m2
05:55 10.2 °C -4.2 °C 1017.2 hPa Calm     36% 0 mm 0.0 W/m2
06:00 10.4 °C -4.4 °C 1017.2 hPa Calm     35% 0 mm 0.0 W/m2
06:11 10.1 °C -4.7 °C 1017.5 hPa Calm     35% 0 mm 0.0 W/m2
06:17 9.7 °C -4.7 °C 1017.5 hPa Calm     36% 0 mm 0.0 W/m2
06:25 9.4 °C -4.2 °C 1017.5 hPa Calm     38% 0 mm 7.0 W/m2
06:31 9.4 °C -4.6 °C 1017.5 hPa Calm     37% 0 mm 12.0 W/m2
06:36 9.3 °C -4.7 °C 1017.5 hPa Calm     37% 0 mm 14.0 W/m2
06:41 9.1 °C -4.8 °C 1017.5 hPa Calm     37% 0 mm 18.0 W/m2
06:46 8.8 °C -5.1 °C 1017.5 hPa Calm     37% 0 mm 19.0 W/m2
06:51 8.6 °C -4.9 °C 1017.8 hPa Calm     38% 0 mm 26.0 W/m2
06:56 8.8 °C -4.4 °C 1017.5 hPa Calm     39% 0 mm 58.0 W/m2
07:01 9.2 °C -4 °C 1017.5 hPa Calm     39% 0 mm 97.0 W/m2
07:06 9.4 °C -4.6 °C 1017.8 hPa Calm     37% 0 mm 118.0 W/m2
07:16 9.8 °C -4.2 °C 1017.8 hPa NNW 9.7 km/h 11.3 km/h 37% 0 mm 132.0 W/m2
07:26 11.3 °C -3.2 °C 1017.8 hPa NNW 9.7 km/h 12.9 km/h 36% 0 mm 141.0 W/m2
07:32 12.4 °C -3.4 °C 1018.2 hPa NNW 7.9 km/h 9.7 km/h 33% 0 mm 148.0 W/m2
07:37 12.4 °C -3.4 °C 1018.2 hPa NNW 7.9 km/h 9.7 km/h 33% 0 mm 148.0 W/m2
07:52 13 °C -2.9 °C 1018.2 hPa NNW 9.7 km/h 9.7 km/h 33% 0 mm 243.0 W/m2
08:02 14.6 °C -1.9 °C 1017.8 hPa NNW 13 km/h 14.5 km/h 32% 0 mm 292.0 W/m2
08:18 15.6 °C -1.9 °C 1017.8 hPa NNW 9.7 km/h 11.3 km/h 30% 0 mm 311.0 W/m2
08:24 15.6 °C -1.9 °C 1017.8 hPa NNW 9.7 km/h 11.3 km/h 30% 0 mm 311.0 W/m2
08:33 16.6 °C -2 °C 1017.8 hPa NNW 13 km/h 13 km/h 28% 0 mm 390.0 W/m2
08:48 17.1 °C -2.1 °C 1017.8 hPa NNW 14.3 km/h 19.3 km/h 27% 0 mm 436.0 W/m2
09:03 17.4 °C -1.3 °C 1017.8 hPa NW 17.7 km/h 22.5 km/h 28% 0 mm 461.0 W/m2
09:24 18.2 °C -2.2 °C 1017.8 hPa NW 13 km/h 22.5 km/h 25% 0 mm 478.0 W/m2
09:33 18.6 °C -2.4 °C 1018.2 hPa West 20.9 km/h 24.1 km/h 24% 0 mm 550.0 W/m2
09:54 19.1 °C -2.5 °C 1018.2 hPa West 13 km/h 19.3 km/h 23% 0 mm 577.0 W/m2
10:04 19.7 °C -3.2 °C 1017.8 hPa West 17.7 km/h 19.3 km/h 21% 0 mm 605.0 W/m2
10:18 20.1 °C -3.6 °C 1017.8 hPa West 7.9 km/h 16.1 km/h 20% 0 mm 617.0 W/m2
10:30 20.6 °C -3.8 °C 1017.8 hPa West 13 km/h 19.3 km/h 19% 0 mm 633.0 W/m2
10:43 20.8 °C -4.4 °C 1017.5 hPa West 16.3 km/h 16.3 km/h 18% 0 mm 657.0 W/m2
10:55 21.1 °C -4.9 °C 1017.5 hPa West 9.7 km/h 17.7 km/h 17% 0 mm 668.0 W/m2
11:09 21.8 °C -5.1 °C 1017.2 hPa West 16.3 km/h 19.3 km/h 16% 0 mm 682.0 W/m2
11:22 22.2 °C -5.7 °C 1016.8 hPa West 16.3 km/h 20.9 km/h 15% 0 mm 694.0 W/m2
11:31 22.3 °C -6.5 °C 1016.8 hPa West 17.7 km/h 24.1 km/h 14% 0 mm 700.0 W/m2
11:36 22.6 °C -5.4 °C 1016.8 hPa West 22.7 km/h 24.1 km/h 15% 0 mm 700.0 W/m2
11:45 22.7 °C -6.2 °C 1016.5 hPa West 19.5 km/h 20.9 km/h 14% 0 mm 703.0 W/m2
11:54 22.8 °C -5.2 °C 1016.1 hPa West 16.3 km/h 17.7 km/h 15% 0 mm 705.0 W/m2
23:34 10.8 °C -0.4 °C 1015.8 hPa SSW 19.5 km/h 19.5 km/h 46% 0 mm 0.0 W/m2
23:45 10.7 °C -0.5 °C 1015.8 hPa SSW 7.9 km/h 8 km/h 46% 0 mm 0.0 W/m2
23:50 10.4 °C -0.7 °C 1015.8 hPa Calm   4.8 km/h 46% 0 mm 0.0 W/m2
23:55 10.2 °C -0.9 °C 1015.8 hPa Calm     46% 0 mm 0.0 W/m2
Canyon Roadhouse, Fishriver Canyon, Namibia
Compliments of Weather Underground - 2 mb